Dubuque, IA

2:49 PM CST on December 11, 2019 (GMT -0600)
Dubuque Regional

Weather History for KDBQ - September, 2019

Change the Weather History Date:

Friday, September 20, 2019

  Actual Average Record
Temperature  
Mean Temperature 72 °F 60 °F  
Max Temperature 82 °F 71 °F 92 °F (1895)
Min Temperature 63 °F 50 °F 28 °F (1956)
Degree Days  
Heating Degree Days 0 6  
Month to date heating degree days 24 72  
Since 1 July heating degree days 33 99  
Cooling Degree Days 8 1  
Month to date cooling degree days 74 52  
Year to date cooling degree days 647 628  
Growing Degree Days 22 (Base 50)    
Moisture  
Dew Point 66 °F    
Average Humidity 92    
Maximum Humidity 100    
Minimum Humidity 55    
Precipitation  
Precipitation 0.01 in 0.12 in 2.27 in (1965)
Month to date precipitation 10.59 2.36  
Year to date precipitation 41.72 28.34  
Snow  
Snow 0.00 in 0.00 in - ()
Month to date snowfall 0.0 0.0  
Since 1 July snowfall 0.0 0.0  
Since 1 September snowfall 0.0 0.0  
Snow Depth 0.00 in    
Sea Level Pressure  
Sea Level Pressure 30.08 in    
Wind  
Wind Speed 5 mph ()    
Max Wind Speed 15 mph    
Max Gust Speed 22 mph    
Visibility 5.8 miles    
Events Fog , Rain    
T = Trace of Precipitation, MM = Missing Value Source: Averaged Metar Reports

Daily Weather History Graph

Daily Weather History Graph

Search for Another Location

Airport or City:

Astronomy

Sep. 20, 2019 Rise Set
Actual Time 6:47 AM CDT 7:04 PM CDT
Civil Twilight 6:19 AM CDT 7:32 PM CDT
Nautical Twilight 5:46 AM CDT 8:04 PM CDT
Astronomical Twilight 5:12 AM CDT 8:38 PM CDT
Moon 10:46 PM CDT (9/20) 12:59 PM CDT (9/20)
Length of Visible Light 13h 12m
Length of Day
12h 16m
Waning Gibbous, 65% of the Moon is Illuminated
Sep 20
Waning Gibbous
Sep 21
Last Quarter
Sep 28
New
Oct 5
First Quarter
Oct 13
Full

Hourly Weather History & Observations

Time (CDT) Temp. Heat Index Dew Point Humidity Pressure Visibility Wind Dir Wind Speed Gust Speed Precip Events Conditions
12:53 AM 68.0 °F - 66.9 °F 96% 30.07 in 8.0 mi SE 4.6 mph - N/A   Clear
1:53 AM 66.9 °F - 66.0 °F 97% 30.08 in 7.0 mi Calm Calm - N/A   Clear
2:32 AM 66.0 °F - 64.9 °F 96% 30.09 in 1.5 mi NE 5.8 mph - N/A   Scattered Clouds
2:38 AM 64.9 °F - 64.9 °F 100% 30.09 in 0.5 mi NE 5.8 mph - N/A Fog Fog
2:53 AM 64.0 °F - 64.0 °F 100% 30.08 in 0.8 mi ENE 3.5 mph - N/A   Partly Cloudy
2:58 AM 64.0 °F - 64.0 °F 100% 30.09 in 2.0 mi NE 4.6 mph - N/A   Scattered Clouds
3:07 AM 64.0 °F - 64.0 °F 100% 30.09 in 0.8 mi NNE 8.1 mph - N/A   Mostly Cloudy
3:16 AM 64.9 °F - 64.9 °F 100% 30.09 in 0.2 mi NNE 6.9 mph - N/A Fog Fog
3:30 AM 64.9 °F - 64.9 °F 100% 30.09 in 1.0 mi NE 4.6 mph - N/A   Mostly Cloudy
3:39 AM 64.0 °F - 64.0 °F 100% 30.08 in 0.8 mi NE 3.5 mph - N/A   Mostly Cloudy
3:53 AM 63.0 °F - 63.0 °F 100% 30.07 in 0.8 mi NE 4.6 mph - N/A   Partly Cloudy
4:00 AM 63.0 °F - 63.0 °F 100% 30.08 in 0.8 mi NNE 5.8 mph - N/A   Mist
4:20 AM 64.0 °F - 64.0 °F 100% 30.08 in 1.2 mi Calm Calm - N/A   Scattered Clouds
4:35 AM 64.0 °F - 64.0 °F 100% 30.08 in 4.0 mi East 3.5 mph - N/A   Partly Cloudy
4:53 AM 64.0 °F - 64.0 °F 100% 30.08 in 3.0 mi East 3.5 mph - N/A   Clear
5:53 AM 64.9 °F - 64.9 °F 100% 30.08 in 5.0 mi ESE 5.8 mph - N/A   Clear
6:31 AM 66.0 °F - 66.0 °F 100% 30.10 in 6.0 mi South 4.6 mph - N/A   Mostly Cloudy
6:39 AM 66.0 °F - 66.0 °F 100% 30.09 in 6.0 mi Calm Calm - N/A   Mostly Cloudy
6:53 AM 64.9 °F - 64.9 °F 100% 30.08 in 4.0 mi Calm Calm - N/A   Scattered Clouds
7:53 AM 66.9 °F - 66.9 °F 100% 30.10 in 4.0 mi South 6.9 mph - N/A   Scattered Clouds
8:53 AM 69.1 °F - 68.0 °F 96% 30.11 in 5.0 mi South 4.6 mph - N/A   Partly Cloudy
9:53 AM 72.0 °F - 69.1 °F 91% 30.11 in 9.0 mi SW 9.2 mph - N/A   Partly Cloudy
10:53 AM 72.0 °F - 69.1 °F 91% 30.12 in 10.0 mi SSW 5.8 mph - N/A   Partly Cloudy
11:53 AM 70.0 °F - 68.0 °F 93% 30.12 in 8.0 mi SW 9.2 mph - N/A   Clear
12:53 PM 70.0 °F - 68.0 °F 93% 30.08 in 8.0 mi SW 5.8 mph - 0.00 in Rain Light Rain
1:53 PM 75.9 °F - 69.1 °F 79% 30.06 in 10.0 mi South 12.7 mph - 0.01 in   Clear
2:53 PM 82.0 °F 83.8 °F 64.9 °F 56% 30.06 in 10.0 mi South 8.1 mph - N/A   Clear
3:53 PM 81.0 °F 83.8 °F 68.0 °F 65% 30.05 in 10.0 mi South 9.2 mph - N/A   Clear
4:53 PM 81.0 °F 84.1 °F 69.1 °F 67% 30.05 in 10.0 mi SSE 9.2 mph - N/A   Clear
5:53 PM 80.1 °F 83.2 °F 70.0 °F 71% 30.06 in 10.0 mi SE 8.1 mph - N/A   Mostly Cloudy
6:53 PM 75.9 °F - 70.0 °F 82% 30.05 in 10.0 mi ESE 6.9 mph - N/A   Clear
7:53 PM 73.9 °F - 70.0 °F 87% 30.04 in 10.0 mi SE 9.2 mph - N/A   Clear
8:53 PM 73.9 °F - 68.0 °F 82% 30.05 in 10.0 mi SSE 10.4 mph - N/A   Clear
9:53 PM 73.0 °F - 68.0 °F 84% 30.05 in 10.0 mi SSE 10.4 mph - N/A   Clear
10:53 PM 73.9 °F - 69.1 °F 85% 30.04 in 10.0 mi SSE 13.8 mph 21.9 mph N/A   Clear
11:53 PM 71.1 °F - 68.0 °F 90% 30.03 in 10.0 mi SSE 9.2 mph - N/A   Clear